Location: Riverside Cemetery
(38.3047°N, 99.7773°W)
Time: 11:13:24
(UTC+00:00)

Cosmos 1867 - Pass Details

Date: 19 September 2020
Orbit: 777 x 799 km, 65.0° (Epoch: 31 October)

Event Time Altitude Azimuth Distance (km) Brightness Sun altitude
Rises 02:53:15 0° 324° (NW) 3,309 7.7 -25.9°
Reaches altitude 10° 02:55:44 10° 320° (NW) 2,376 6.9 -26.3°
Maximum altitude 03:01:02 53° 245° (WSW) 975 4.1 -27.3°
Enters shadow 03:02:03 46° 208° (SSW) 1,060 4.1 -27.4°
